"Time","Value","Approval","myLocation"
"2023-05-11 00:00",11.6478535491471,"Approved","OW467"
"2023-05-11 01:00",11.6568519643527,"Approved","OW467"
"2023-05-11 02:00",11.6058503795583,"Approved","OW467"
"2023-05-11 03:00",11.5678487947638,"Approved","OW467"
"2023-05-11 04:00",11.5388472099694,"Approved","OW467"
"2023-05-11 05:00",11.541845625175,"Approved","OW467"
"2023-05-11 06:00",11.5438440403806,"Approved","OW467"
"2023-05-11 07:00",11.5468424555861,"Approved","OW467"
"2023-05-11 08:00",11.5508408707917,"Approved","OW467"
"2023-05-11 09:00",11.5538392859973,"Approved","OW467"
"2023-05-11 10:00",11.5588377012029,"Approved","OW467"
"2023-05-11 11:00",11.5668361164084,"Approved","OW467"
"2023-05-11 12:00",11.574834531614,"Approved","OW467"
"2023-05-11 13:00",11.5848329468196,"Approved","OW467"
"2023-05-11 14:00",11.6008313620252,"Approved","OW467"
"2023-05-11 15:00",11.6928297772307,"Approved","OW467"
"2023-05-11 16:00",11.7228281924363,"Approved","OW467"
"2023-05-11 17:00",11.7338266076419,"Approved","OW467"
"2023-05-11 18:00",11.7388250228475,"Approved","OW467"
"2023-05-11 19:00",11.736823438053,"Approved","OW467"
"2023-05-11 20:00",11.7358218532586,"Approved","OW467"
"2023-05-11 21:00",11.7158202684642,"Approved","OW467"
"2023-05-11 22:00",11.7058186836698,"Approved","OW467"
"2023-05-11 23:00",11.6908170988753,"Approved","OW467"
"2023-05-12 00:00",11.6678155140809,"Approved","OW467"
"2023-05-12 01:00",11.6408139292865,"Approved","OW467"
"2023-05-12 02:00",11.610812344492,"Approved","OW467"
"2023-05-12 03:00",11.5828107596976,"Approved","OW467"
"2023-05-12 04:00",11.5408091749032,"Approved","OW467"
"2023-05-12 05:00",11.5348075901088,"Approved","OW467"
"2023-05-12 06:00",11.5268060053143,"Approved","OW467"
"2023-05-12 07:00",11.5298044205199,"Approved","OW467"
"2023-05-12 08:00",11.5388028357255,"Approved","OW467"
"2023-05-12 09:00",11.5448012509311,"Approved","OW467"
"2023-05-12 10:00",11.5567996661366,"Approved","OW467"
"2023-05-12 11:00",11.5687980813422,"Approved","OW467"
"2023-05-12 12:00",11.5737964965478,"Approved","OW467"
"2023-05-12 13:00",11.5877949117534,"Approved","OW467"
"2023-05-12 14:00",11.6107933269589,"Approved","OW467"
"2023-05-12 15:00",11.7097917421645,"Approved","OW467"
"2023-05-12 16:00",11.7487901573701,"Approved","OW467"
"2023-05-12 17:00",11.7537885725757,"Approved","OW467"
"2023-05-12 18:00",11.7567869877812,"Approved","OW467"
"2023-05-12 19:00",11.7597854029868,"Approved","OW467"
"2023-05-12 20:00",11.7547838181924,"Approved","OW467"
"2023-05-12 21:00",11.752782233398,"Approved","OW467"
"2023-05-12 22:00",11.7447806486035,"Approved","OW467"
"2023-05-12 23:00",11.7317790638091,"Approved","OW467"
"2023-05-13 00:00",11.6987774790147,"Approved","OW467"
"2023-05-13 01:00",11.6627758942203,"Approved","OW467"
"2023-05-13 02:00",11.6297743094258,"Approved","OW467"
"2023-05-13 03:00",11.6047727246314,"Approved","OW467"
"2023-05-13 04:00",11.560771139837,"Approved","OW467"
"2023-05-13 05:00",11.5517695550426,"Approved","OW467"
"2023-05-13 06:00",11.5437679702481,"Approved","OW467"
"2023-05-13 07:00",11.5417663854537,"Approved","OW467"
"2023-05-13 08:00",11.5507648006593,"Approved","OW467"
"2023-05-13 09:00",11.5607632158648,"Approved","OW467"
"2023-05-13 10:00",11.5707616310704,"Approved","OW467"
"2023-05-13 11:00",11.581760046276,"Approved","OW467"
"2023-05-13 12:00",11.5897584614816,"Approved","OW467"
"2023-05-13 13:00",11.6017568766871,"Approved","OW467"
"2023-05-13 14:00",11.6237552918927,"Approved","OW467"
"2023-05-13 15:00",11.7207537070983,"Approved","OW467"
"2023-05-13 16:00",11.7487521223039,"Approved","OW467"
"2023-05-13 17:00",11.7607505375094,"Approved","OW467"
"2023-05-13 18:00",11.764748952715,"Approved","OW467"
"2023-05-13 19:00",11.7697473679206,"Approved","OW467"
"2023-05-13 20:00",11.7687457831262,"Approved","OW467"
"2023-05-13 21:00",11.7567441983317,"Approved","OW467"
"2023-05-13 22:00",11.7557426135373,"Approved","OW467"
"2023-05-13 23:00",11.7427410287429,"Approved","OW467"
"2023-05-14 00:00",11.7127394439485,"Approved","OW467"
"2023-05-14 01:00",11.680737859154,"Approved","OW467"
"2023-05-14 02:00",11.6237362743596,"Approved","OW467"
"2023-05-14 03:00",11.6207346895652,"Approved","OW467"
"2023-05-14 04:00",11.6197331047708,"Approved","OW467"
"2023-05-14 05:00",11.6207315199763,"Approved","OW467"
"2023-05-14 06:00",11.6237299351819,"Approved","OW467"
"2023-05-14 07:00",11.6257283503875,"Approved","OW467"
"2023-05-14 08:00",11.6287267655931,"Approved","OW467"
"2023-05-14 09:00",11.6307251807986,"Approved","OW467"
"2023-05-14 10:00",11.6327235960042,"Approved","OW467"
"2023-05-14 11:00",11.6337220112098,"Approved","OW467"
"2023-05-14 12:00",11.6357204264154,"Approved","OW467"
"2023-05-14 13:00",11.6367188416209,"Approved","OW467"
"2023-05-14 14:00",11.6377172568265,"Approved","OW467"
"2023-05-14 15:00",11.6377156720321,"Approved","OW467"
"2023-05-14 16:00",11.6377140872377,"Approved","OW467"
"2023-05-14 17:00",11.6357125024432,"Approved","OW467"
"2023-05-14 18:00",11.6327109176488,"Approved","OW467"
"2023-05-14 19:00",11.6287093328544,"Approved","OW467"
"2023-05-14 20:00",11.6227077480599,"Approved","OW467"
"2023-05-14 21:00",11.6167061632655,"Approved","OW467"
"2023-05-14 22:00",11.6107045784711,"Approved","OW467"
"2023-05-14 23:00",11.6047029936767,"Approved","OW467"
"2023-05-15 00:00",11.5987014088822,"Approved","OW467"
"2023-05-15 01:00",11.5936998240878,"Approved","OW467"
"2023-05-15 02:00",11.5896982392934,"Approved","OW467"
"2023-05-15 03:00",11.587696654499,"Approved","OW467"
"2023-05-15 04:00",11.5866950697045,"Approved","OW467"
"2023-05-15 05:00",11.5886934849101,"Approved","OW467"
"2023-05-15 06:00",11.5896919001157,"Approved","OW467"
"2023-05-15 07:00",11.5926903153213,"Approved","OW467"
"2023-05-15 08:00",11.5936887305268,"Approved","OW467"
"2023-05-15 09:00",11.5946871457324,"Approved","OW467"
"2023-05-15 10:00",11.596685560938,"Approved","OW467"
"2023-05-15 11:00",11.5986839761436,"Approved","OW467"
"2023-05-15 12:00",11.5996823913491,"Approved","OW467"
"2023-05-15 13:00",11.6016808065547,"Approved","OW467"
"2023-05-15 14:00",11.6036792217603,"Approved","OW467"
"2023-05-15 15:00",11.6036776369659,"Approved","OW467"
"2023-05-15 16:00",11.6046760521714,"Approved","OW467"
"2023-05-15 17:00",11.603674467377,"Approved","OW467"
"2023-05-15 18:00",11.6016728825826,"Approved","OW467"
"2023-05-15 19:00",11.5986712977882,"Approved","OW467"
"2023-05-15 20:00",11.5956697129937,"Approved","OW467"
"2023-05-15 21:00",11.5916681281993,"Approved","OW467"
"2023-05-15 22:00",11.5886665434049,"Approved","OW467"
"2023-05-15 23:00",11.5856649586105,"Approved","OW467"
"2023-05-16 00:00",11.583663373816,"Approved","OW467"
"2023-05-16 01:00",11.5816617890216,"Approved","OW467"
"2023-05-16 02:00",11.5806602042272,"Approved","OW467"
"2023-05-16 03:00",11.5796586194328,"Approved","OW467"
"2023-05-16 04:00",11.5796570346383,"Approved","OW467"
"2023-05-16 05:00",11.5816554498439,"Approved","OW467"
"2023-05-16 06:00",11.5836538650495,"Approved","OW467"
"2023-05-16 07:00",11.585652280255,"Approved","OW467"
"2023-05-16 08:00",11.5876506954606,"Approved","OW467"
"2023-05-16 09:00",11.5896491106662,"Approved","OW467"
"2023-05-16 10:00",11.5916475258718,"Approved","OW467"
"2023-05-16 11:00",11.5936459410773,"Approved","OW467"
"2023-05-16 12:00",11.5956443562829,"Approved","OW467"
"2023-05-16 13:00",11.5976427714885,"Approved","OW467"
"2023-05-16 14:00",11.6006411866941,"Approved","OW467"
"2023-05-16 15:00",11.6026396018996,"Approved","OW467"
"2023-05-16 16:00",11.6056380171052,"Approved","OW467"
"2023-05-16 17:00",11.6086364323108,"Approved","OW467"
"2023-05-16 18:00",11.6106348475164,"Approved","OW467"
"2023-05-16 19:00",11.6106332627219,"Approved","OW467"
"2023-05-16 20:00",11.6106316779275,"Approved","OW467"
"2023-05-16 21:00",11.6086300931331,"Approved","OW467"
"2023-05-16 22:00",11.6056285083387,"Approved","OW467"
"2023-05-16 23:00",11.6016269235442,"Approved","OW467"
"2023-05-17 00:00",11.5986253387498,"Approved","OW467"
"2023-05-17 01:00",11.5956237539554,"Approved","OW467"
"2023-05-17 02:00",11.593622169161,"Approved","OW467"
"2023-05-17 03:00",11.5946205843665,"Approved","OW467"
"2023-05-17 04:00",11.5936189995721,"Approved","OW467"
"2023-05-17 05:00",11.5936174147777,"Approved","OW467"
"2023-05-17 06:00",11.5946158299833,"Approved","OW467"
"2023-05-17 07:00",11.5966142451888,"Approved","OW467"
"2023-05-17 08:00",11.5986126603944,"Approved","OW467"
"2023-05-17 09:00",11.5996110756,"Approved","OW467"
"2023-05-17 10:00",11.6006094908056,"Approved","OW467"
"2023-05-17 11:00",11.6006079060111,"Approved","OW467"
"2023-05-17 12:00",11.6016063212167,"Approved","OW467"
"2023-05-17 13:00",11.6026047364223,"Approved","OW467"
"2023-05-17 14:00",11.6036031516278,"Approved","OW467"
"2023-05-17 15:00",11.6036015668334,"Approved","OW467"
"2023-05-17 16:00",11.603599982039,"Approved","OW467"
"2023-05-17 17:00",11.6035983972446,"Approved","OW467"
"2023-05-17 18:00",11.6025968124501,"Approved","OW467"
"2023-05-17 19:00",11.5995952276557,"Approved","OW467"
"2023-05-17 20:00",11.5945936428613,"Approved","OW467"
"2023-05-17 21:00",11.5895920580669,"Approved","OW467"
"2023-05-17 22:00",11.5845904732724,"Approved","OW467"
"2023-05-17 23:00",11.578588888478,"Approved","OW467"
"2023-05-18 00:00",11.5735873036836,"Approved","OW467"
"2023-05-18 01:00",11.5685857188892,"Approved","OW467"
"2023-05-18 02:00",11.5645841340947,"Approved","OW467"
"2023-05-18 03:00",11.5635825493003,"Approved","OW467"
"2023-05-18 04:00",11.5635809645059,"Approved","OW467"
"2023-05-18 05:00",11.5645793797115,"Approved","OW467"
"2023-05-18 06:00",11.566577794917,"Approved","OW467"
"2023-05-18 07:00",11.5695762101226,"Approved","OW467"
"2023-05-18 08:00",11.5725746253282,"Approved","OW467"
"2023-05-18 09:00",11.5755730405338,"Approved","OW467"
"2023-05-18 10:00",11.5785714557393,"Approved","OW467"
"2023-05-18 11:00",11.5815698709449,"Approved","OW467"
"2023-05-18 12:00",11.5845682861505,"Approved","OW467"
"2023-05-18 13:00",11.5875667013561,"Approved","OW467"
"2023-05-18 14:00",11.5905651165616,"Approved","OW467"
"2023-05-18 15:00",11.5925635317672,"Approved","OW467"
"2023-05-18 16:00",11.5945619469728,"Approved","OW467"
"2023-05-18 17:00",11.5955603621784,"Approved","OW467"
"2023-05-18 18:00",11.5965587773839,"Approved","OW467"
"2023-05-18 19:00",11.5965571925895,"Approved","OW467"
"2023-05-18 20:00",11.5965556077951,"Approved","OW467"
"2023-05-18 21:00",11.5955540230007,"Approved","OW467"
"2023-05-18 22:00",11.5935524382062,"Approved","OW467"
"2023-05-18 23:00",11.5915508534118,"Approved","OW467"
"2023-05-19 00:00",11.5885492686174,"Approved","OW467"
"2023-05-19 01:00",11.5865476838229,"Approved","OW467"
"2023-05-19 02:00",11.5855460990285,"Approved","OW467"
"2023-05-19 03:00",11.5855445142341,"Approved","OW467"
"2023-05-19 04:00",11.5875429294397,"Approved","OW467"
"2023-05-19 05:00",11.5895413446452,"Approved","OW467"
"2023-05-19 06:00",11.5935397598508,"Approved","OW467"
"2023-05-19 07:00",11.5985381750564,"Approved","OW467"
"2023-05-19 08:00",11.602536590262,"Approved","OW467"
"2023-05-19 09:00",11.6055350054675,"Approved","OW467"
"2023-05-19 10:00",11.6095334206731,"Approved","OW467"
"2023-05-19 11:00",11.6125318358787,"Approved","OW467"
"2023-05-19 12:00",11.6155302510843,"Approved","OW467"
"2023-05-19 13:00",11.6175286662898,"Approved","OW467"
"2023-05-19 14:00",11.6205270814954,"Approved","OW467"
"2023-05-19 15:00",11.621525496701,"Approved","OW467"
"2023-05-19 16:00",11.6235239119066,"Approved","OW467"
"2023-05-19 17:00",11.6245223271121,"Approved","OW467"
"2023-05-19 18:00",11.6235207423177,"Approved","OW467"
"2023-05-19 19:00",11.6225191575233,"Approved","OW467"
"2023-05-19 20:00",11.6185175727289,"Approved","OW467"
"2023-05-19 21:00",11.6155159879344,"Approved","OW467"
"2023-05-19 22:00",11.61151440314,"Approved","OW467"
"2023-05-19 23:00",11.6075128183456,"Approved","OW467"
"2023-05-20 00:00",11.6035112335512,"Approved","OW467"
"2023-05-20 01:00",11.5995096487567,"Approved","OW467"
"2023-05-20 02:00",11.5955080639623,"Approved","OW467"
"2023-05-20 03:00",11.5915064791679,"Approved","OW467"
"2023-05-20 04:00",11.5905048943735,"Approved","OW467"
"2023-05-20 05:00",11.592503309579,"Approved","OW467"
"2023-05-20 06:00",11.5955017247846,"Approved","OW467"
"2023-05-20 07:00",11.5985001399902,"Approved","OW467"
"2023-05-20 08:00",11.6014985551957,"Approved","OW467"
"2023-05-20 09:00",11.6044969704013,"Approved","OW467"
"2023-05-20 10:00",11.6074953856069,"Approved","OW467"
"2023-05-20 11:00",11.6094938008125,"Approved","OW467"
"2023-05-20 12:00",11.611492216018,"Approved","OW467"
"2023-05-20 13:00",11.6124906312236,"Approved","OW467"
"2023-05-20 14:00",11.6144890464292,"Approved","OW467"
"2023-05-20 15:00",11.6154874616348,"Approved","OW467"
"2023-05-20 16:00",11.6164858768403,"Approved","OW467"
"2023-05-20 17:00",11.6174842920459,"Approved","OW467"
"2023-05-20 18:00",11.6164827072515,"Approved","OW467"
"2023-05-20 19:00",11.6154811224571,"Approved","OW467"
"2023-05-20 20:00",11.6124795376626,"Approved","OW467"
"2023-05-20 21:00",11.6084779528682,"Approved","OW467"
"2023-05-20 22:00",11.6024763680738,"Approved","OW467"
"2023-05-20 23:00",11.5964747832794,"Approved","OW467"
"2023-05-21 00:00",11.5914731984849,"Approved","OW467"
"2023-05-21 01:00",11.5884716136905,"Approved","OW467"
"2023-05-21 02:00",11.5874700288961,"Approved","OW467"
"2023-05-21 03:00",11.5884684441017,"Approved","OW467"
"2023-05-21 04:00",11.5914668593072,"Approved","OW467"
"2023-05-21 05:00",11.5964652745128,"Approved","OW467"
"2023-05-21 06:00",11.6014636897184,"Approved","OW467"
"2023-05-21 07:00",11.605462104924,"Approved","OW467"
"2023-05-21 08:00",11.6074605201295,"Approved","OW467"
"2023-05-21 09:00",11.6074589353351,"Approved","OW467"
"2023-05-21 10:00",11.6064573505407,"Approved","OW467"
"2023-05-21 11:00",11.6044557657463,"Approved","OW467"
"2023-05-21 12:00",11.6044541809518,"Approved","OW467"
"2023-05-21 13:00",11.6054525961574,"Approved","OW467"
"2023-05-21 14:00",11.607451011363,"Approved","OW467"
"2023-05-21 15:00",11.6064494265686,"Approved","OW467"
"2023-05-21 16:00",11.6054478417741,"Approved","OW467"
"2023-05-21 17:00",11.6044462569797,"Approved","OW467"
"2023-05-21 18:00",11.6044446721853,"Approved","OW467"
"2023-05-21 19:00",11.6024430873908,"Approved","OW467"
"2023-05-21 20:00",11.5984415025964,"Approved","OW467"
"2023-05-21 21:00",11.594439917802,"Approved","OW467"
"2023-05-21 22:00",11.5884383330076,"Approved","OW467"
"2023-05-21 23:00",11.5864367482131,"Approved","OW467"
"2023-05-22 00:00",11.5844351634187,"Approved","OW467"
"2023-05-22 01:00",11.5834335786243,"Approved","OW467"
"2023-05-22 02:00",11.5834319938299,"Approved","OW467"
"2023-05-22 03:00",11.5834304090354,"Approved","OW467"
"2023-05-22 04:00",11.584428824241,"Approved","OW467"
"2023-05-22 05:00",11.5844272394466,"Approved","OW467"
"2023-05-22 06:00",11.5844256546522,"Approved","OW467"
"2023-05-22 07:00",11.5844240698577,"Approved","OW467"
"2023-05-22 08:00",11.5844224850633,"Approved","OW467"
"2023-05-22 09:00",11.5844209002689,"Approved","OW467"
"2023-05-22 10:00",11.5864193154745,"Approved","OW467"
"2023-05-22 11:00",11.58841773068,"Approved","OW467"
"2023-05-22 12:00",11.5904161458856,"Approved","OW467"
"2023-05-22 13:00",11.5924145610912,"Approved","OW467"
"2023-05-22 14:00",11.5944129762968,"Approved","OW467"
"2023-05-22 15:00",11.5954113915023,"Approved","OW467"
"2023-05-22 16:00",11.5964098067079,"Approved","OW467"
"2023-05-22 17:00",11.5964082219135,"Approved","OW467"
"2023-05-22 18:00",11.5974066371191,"Approved","OW467"
"2023-05-22 19:00",11.5974050523246,"Approved","OW467"
"2023-05-22 20:00",11.5974034675302,"Approved","OW467"
"2023-05-22 21:00",11.5984018827358,"Approved","OW467"
"2023-05-22 22:00",11.5994002979414,"Approved","OW467"
"2023-05-22 23:00",11.6013987131469,"Approved","OW467"
"2023-05-23 00:00",11.6033971283525,"Approved","OW467"
"2023-05-23 01:00",11.6053955435581,"Approved","OW467"
"2023-05-23 02:00",11.6063939587636,"Approved","OW467"
"2023-05-23 03:00",11.6073923739692,"Approved","OW467"
"2023-05-23 04:00",11.6093907891748,"Approved","OW467"
"2023-05-23 05:00",11.6093892043804,"Approved","OW467"
"2023-05-23 06:00",11.6103876195859,"Approved","OW467"
"2023-05-23 07:00",11.6113860347915,"Approved","OW467"
"2023-05-23 08:00",11.6123844499971,"Approved","OW467"
"2023-05-23 09:00",11.6133828652027,"Approved","OW467"
"2023-05-23 10:00",11.6123812804082,"Approved","OW467"
"2023-05-23 11:00",11.6123796956138,"Approved","OW467"
"2023-05-23 12:00",11.6133781108194,"Approved","OW467"
"2023-05-23 13:00",11.613376526025,"Approved","OW467"
"2023-05-23 14:00",11.6133749412305,"Approved","OW467"
"2023-05-23 15:00",11.6123733564361,"Approved","OW467"
"2023-05-23 16:00",11.6113717716417,"Approved","OW467"
"2023-05-23 17:00",11.6103701868473,"Approved","OW467"
"2023-05-23 18:00",11.6083686020528,"Approved","OW467"
"2023-05-23 19:00",11.6063670172584,"Approved","OW467"
"2023-05-23 20:00",11.604365432464,"Approved","OW467"
"2023-05-23 21:00",11.6003638476696,"Approved","OW467"
"2023-05-23 22:00",11.5963622628751,"Approved","OW467"
"2023-05-23 23:00",11.5933606780807,"Approved","OW467"
"2023-05-24 00:00",11.5913590932863,"Approved","OW467"
"2023-05-24 01:00",11.5893575084919,"Approved","OW467"
"2023-05-24 02:00",11.5883559236974,"Approved","OW467"
"2023-05-24 03:00",11.588354338903,"Approved","OW467"
"2023-05-24 04:00",11.5913527541086,"Approved","OW467"
"2023-05-24 05:00",11.5943511693142,"Approved","OW467"
"2023-05-24 06:00",11.5993495845197,"Approved","OW467"
"2023-05-24 07:00",11.6013479997253,"Approved","OW467"
"2023-05-24 08:00",11.6043464149309,"Approved","OW467"
"2023-05-24 09:00",11.6053448301365,"Approved","OW467"
"2023-05-24 10:00",11.607343245342,"Approved","OW467"
"2023-05-24 11:00",11.6073416605476,"Approved","OW467"
"2023-05-24 12:00",11.6093400757532,"Approved","OW467"
"2023-05-24 13:00",11.6113384909587,"Approved","OW467"
"2023-05-24 14:00",11.6123369061643,"Approved","OW467"
"2023-05-24 15:00",11.6113353213699,"Approved","OW467"
"2023-05-24 16:00",11.6113337365755,"Approved","OW467"
"2023-05-24 17:00",11.610332151781,"Approved","OW467"
"2023-05-24 18:00",11.6083305669866,"Approved","OW467"
"2023-05-24 19:00",11.6053289821922,"Approved","OW467"
"2023-05-24 20:00",11.6023273973978,"Approved","OW467"
"2023-05-24 21:00",11.5983258126033,"Approved","OW467"
"2023-05-24 22:00",11.5943242278089,"Approved","OW467"
"2023-05-24 23:00",11.5913226430145,"Approved","OW467"
"2023-05-25 00:00",11.5893210582201,"Approved","OW467"
"2023-05-25 01:00",11.5873194734256,"Approved","OW467"
"2023-05-25 02:00",11.5873178886312,"Approved","OW467"
"2023-05-25 03:00",11.5883163038368,"Approved","OW467"
"2023-05-25 04:00",11.5893147190424,"Approved","OW467"
"2023-05-25 05:00",11.5913131342479,"Approved","OW467"
"2023-05-25 06:00",11.5933115494535,"Approved","OW467"
"2023-05-25 07:00",11.5943099646591,"Approved","OW467"
"2023-05-25 08:00",11.5953083798647,"Approved","OW467"
"2023-05-25 09:00",11.5963067950702,"Approved","OW467"
"2023-05-25 10:00",11.5973052102758,"Approved","OW467"
"2023-05-25 11:00",11.5983036254814,"Approved","OW467"
"2023-05-25 12:00",11.600302040687,"Approved","OW467"
"2023-05-25 13:00",11.6013004558925,"Approved","OW467"
"2023-05-25 14:00",11.6032988710981,"Approved","OW467"
"2023-05-25 15:00",11.6032972863037,"Approved","OW467"
"2023-05-25 16:00",11.6052957015093,"Approved","OW467"
"2023-05-25 17:00",11.6062941167148,"Approved","OW467"
"2023-05-25 18:00",11.6052925319204,"Approved","OW467"
"2023-05-25 19:00",11.604290947126,"Approved","OW467"
"2023-05-25 20:00",11.6022893623316,"Approved","OW467"
"2023-05-25 21:00",11.6012877775371,"Approved","OW467"
"2023-05-25 22:00",11.5992861927427,"Approved","OW467"
"2023-05-25 23:00",11.5972846079483,"Approved","OW467"
"2023-05-26 00:00",11.5962830231538,"Approved","OW467"
"2023-05-26 01:00",11.5962814383594,"Approved","OW467"
"2023-05-26 02:00",11.595279853565,"Approved","OW467"
"2023-05-26 03:00",11.5952782687706,"Approved","OW467"
"2023-05-26 04:00",11.5952766839761,"Approved","OW467"
"2023-05-26 05:00",11.5962750991817,"Approved","OW467"
"2023-05-26 06:00",11.5972735143873,"Approved","OW467"
"2023-05-26 07:00",11.5982719295929,"Approved","OW467"
"2023-05-26 08:00",11.5992703447984,"Approved","OW467"
"2023-05-26 09:00",11.601268760004,"Approved","OW467"
"2023-05-26 10:00",11.6022671752096,"Approved","OW467"
"2023-05-26 11:00",11.6022655904152,"Approved","OW467"
"2023-05-26 12:00",11.6032640056207,"Approved","OW467"
"2023-05-26 13:00",11.6042624208263,"Approved","OW467"
"2023-05-26 14:00",11.6052608360319,"Approved","OW467"
"2023-05-26 15:00",11.6062592512375,"Approved","OW467"
"2023-05-26 16:00",11.606257666443,"Approved","OW467"
"2023-05-26 17:00",11.6062560816486,"Approved","OW467"
"2023-05-26 18:00",11.6042544968542,"Approved","OW467"
"2023-05-26 19:00",11.6022529120598,"Approved","OW467"
"2023-05-26 20:00",11.5982513272653,"Approved","OW467"
"2023-05-26 21:00",11.5942497424709,"Approved","OW467"
"2023-05-26 22:00",11.5892481576765,"Approved","OW467"
"2023-05-26 23:00",11.5842465728821,"Approved","OW467"
"2023-05-27 00:00",11.5782449880876,"Approved","OW467"
"2023-05-27 01:00",11.5732434032932,"Approved","OW467"
"2023-05-27 02:00",11.5682418184988,"Approved","OW467"
"2023-05-27 03:00",11.5662402337044,"Approved","OW467"
"2023-05-27 04:00",11.5662386489099,"Approved","OW467"
"2023-05-27 05:00",11.5682370641155,"Approved","OW467"
"2023-05-27 06:00",11.5722354793211,"Approved","OW467"
"2023-05-27 07:00",11.5752338945266,"Approved","OW467"
"2023-05-27 08:00",11.5792323097322,"Approved","OW467"
"2023-05-27 09:00",11.5802307249378,"Approved","OW467"
"2023-05-27 10:00",11.5812291401434,"Approved","OW467"
"2023-05-27 11:00",11.5832275553489,"Approved","OW467"
"2023-05-27 12:00",11.5842259705545,"Approved","OW467"
"2023-05-27 13:00",11.5852243857601,"Approved","OW467"
"2023-05-27 14:00",11.5862228009657,"Approved","OW467"
"2023-05-27 15:00",11.5872212161712,"Approved","OW467"
"2023-05-27 16:00",11.5872196313768,"Approved","OW467"
"2023-05-27 17:00",11.5882180465824,"Approved","OW467"
"2023-05-27 18:00",11.587216461788,"Approved","OW467"
"2023-05-27 19:00",11.5852148769935,"Approved","OW467"
"2023-05-27 20:00",11.5822132921991,"Approved","OW467"
"2023-05-27 21:00",11.5782117074047,"Approved","OW467"
"2023-05-27 22:00",11.5762101226103,"Approved","OW467"
"2023-05-27 23:00",11.5762085378158,"Approved","OW467"
"2023-05-28 00:00",11.5772069530214,"Approved","OW467"
"2023-05-28 01:00",11.577205368227,"Approved","OW467"
"2023-05-28 02:00",11.5772037834326,"Approved","OW467"
"2023-05-28 03:00",11.5782021986381,"Approved","OW467"
"2023-05-28 04:00",11.5802006138437,"Approved","OW467"
"2023-05-28 05:00",11.5821990290493,"Approved","OW467"
"2023-05-28 06:00",11.5851974442549,"Approved","OW467"
"2023-05-28 07:00",11.5871958594604,"Approved","OW467"
"2023-05-28 08:00",11.590194274666,"Approved","OW467"
"2023-05-28 09:00",11.5921926898716,"Approved","OW467"
"2023-05-28 10:00",11.5931911050772,"Approved","OW467"
"2023-05-28 11:00",11.5941895202827,"Approved","OW467"
"2023-05-28 12:00",11.5961879354883,"Approved","OW467"
"2023-05-28 13:00",11.5981863506939,"Approved","OW467"
"2023-05-28 14:00",11.6001847658994,"Approved","OW467"
"2023-05-28 15:00",11.600183181105,"Approved","OW467"
"2023-05-28 16:00",11.6021815963106,"Approved","OW467"
"2023-05-28 17:00",11.6021800115162,"Approved","OW467"
"2023-05-28 18:00",11.6011784267217,"Approved","OW467"
"2023-05-28 19:00",11.5981768419273,"Approved","OW467"